Tracking 17925 objects as of 25-January-2017
HD Live streaming from Space Station
objects crossing your sky now

BREEZE-M DEB (TANK)

Track BREEZE-M DEB (TANK) now!


NORAD ID: 32374
Int'l Code: 2007-058B
Perigee: 324.7 km
Apogee: 34,715.9 km
Inclination: 46.0 °
Period: 612.5 minutes
Semi major axis: 23891 km
RCS: 5.0489 m2 (large)
Launch date: December 9, 2007
Source: Commonwealth of Independent States (former USSR) (CIS)
Launch site: TYURATAM MISSILE AND SPACE COMPLEX (TTMTR)

Note: This is SATELLITE DEBRIS
Your satellite tracking list
Your tracking list is empty





NASA's NSSDC Master Catalog

Two Line Element Set (TLE):
1 32374U 07058B   17024.00819843  .00000495  00000-0  34785-3 0  9994
2 32374  45.9560 225.1268 7197449 223.2251  49.8783  2.35095257 77409
Source of the keplerian elements: AFSPC